Time,TemperatureF,DewpointF,PressureIn,WindDirection,WindDirectionDegrees,WindSpeedMPH,WindSpeedGustMPH,Humidity,HourlyPrecipIn,Conditions,Clouds,dailyrainin,SoftwareType,DateUTC
2013-02-07 00:00:00,29.0,13.0,30.33,NNW,337,3.0,9.0,51,-99.99,,,-99.99,,2013-02-07 05:00:00,
2013-02-07 00:22:00,29.0,13.0,30.33,NNW,337,3.0,9.0,51,-99.99,,,-99.99,,2013-02-07 05:22:00,
2013-02-07 00:32:00,29.0,13.0,30.33,NNW,337,3.0,9.0,51,-99.99,,,-99.99,,2013-02-07 05:32:00,
2013-02-07 00:43:00,29.0,13.0,30.33,NNW,337,3.0,9.0,51,-99.99,,,-99.99,,2013-02-07 05:43:00,
2013-02-07 00:52:00,29.0,13.0,30.33,NNW,337,3.0,9.0,51,-99.99,,,-99.99,,2013-02-07 05:52:00,
2013-02-07 01:00:00,29.0,7.0,30.33,NNW,337,6.0,9.0,39,-99.99,,,-99.99,,2013-02-07 06:00:00,
2013-02-07 01:22:00,29.0,7.0,30.33,NNW,337,6.0,9.0,39,-99.99,,,-99.99,,2013-02-07 06:22:00,
2013-02-07 01:32:00,29.0,7.0,30.33,NNW,337,6.0,9.0,39,-99.99,,,-99.99,,2013-02-07 06:32:00,
2013-02-07 02:00:00,27.0,10.0,30.36,NW,309,3.0,8.0,50,-99.99,,,-99.99,,2013-02-07 07:00:00,
2013-02-07 02:22:00,27.0,10.0,30.36,NW,309,3.0,8.0,50,-99.99,,,-99.99,,2013-02-07 07:22:00,
2013-02-07 02:32:00,27.0,10.0,30.36,NW,309,3.0,8.0,50,-99.99,,,-99.99,,2013-02-07 07:32:00,
2013-02-07 02:42:00,27.0,10.0,30.36,NW,309,3.0,8.0,50,-99.99,,,-99.99,,2013-02-07 07:42:00,
2013-02-07 02:52:00,27.0,10.0,30.36,NW,309,3.0,8.0,50,-99.99,,,-99.99,,2013-02-07 07:52:00,
2013-02-07 03:00:00,26.0,14.0,30.36,NNW,328,4.0,6.0,63,-99.99,,,-99.99,,2013-02-07 08:00:00,
2013-02-07 03:22:00,26.0,14.0,30.36,NNW,328,4.0,6.0,63,-99.99,,,-99.99,,2013-02-07 08:22:00,
2013-02-07 03:32:00,26.0,14.0,30.36,NNW,328,4.0,6.0,63,-99.99,,,-99.99,,2013-02-07 08:32:00,
2013-02-07 03:42:00,26.0,14.0,30.36,NNW,328,4.0,6.0,63,-99.99,,,-99.99,,2013-02-07 08:42:00,
2013-02-07 03:52:00,26.0,14.0,30.36,NNW,328,4.0,6.0,63,-99.99,,,-99.99,,2013-02-07 08:52:00,
2013-02-07 04:00:00,26.0,13.0,30.39,NW,320,7.0,8.0,58,-99.99,,,-99.99,,2013-02-07 09:00:00,
2013-02-07 04:22:00,26.0,13.0,30.39,NW,320,7.0,8.0,58,-99.99,,,-99.99,,2013-02-07 09:22:00,
2013-02-07 04:32:00,26.0,13.0,30.39,NW,320,7.0,8.0,58,-99.99,,,-99.99,,2013-02-07 09:32:00,
2013-02-07 04:42:00,26.0,13.0,30.39,NW,320,7.0,8.0,58,-99.99,,,-99.99,,2013-02-07 09:42:00,
2013-02-07 04:52:00,26.0,13.0,30.39,NW,320,7.0,8.0,58,-99.99,,,-99.99,,2013-02-07 09:52:00,
2013-02-07 05:00:00,26.0,12.0,30.39,NW,318,5.0,8.0,56,-99.99,,,-99.99,,2013-02-07 10:00:00,
2013-02-07 05:22:00,26.0,12.0,30.39,NW,318,5.0,8.0,56,-99.99,,,-99.99,,2013-02-07 10:22:00,
2013-02-07 05:32:00,26.0,12.0,30.39,NW,318,5.0,8.0,56,-99.99,,,-99.99,,2013-02-07 10:32:00,
2013-02-07 05:42:00,26.0,12.0,30.39,NW,318,5.0,8.0,56,-99.99,,,-99.99,,2013-02-07 10:42:00,
2013-02-07 05:52:00,26.0,12.0,30.39,NW,318,5.0,8.0,56,-99.99,,,-99.99,,2013-02-07 10:52:00,
2013-02-07 06:00:00,26.0,12.0,30.42,NW,310,6.0,8.0,58,-99.99,,,-99.99,,2013-02-07 11:00:00,
2013-02-07 06:23:00,26.0,12.0,30.42,NW,310,6.0,8.0,58,-99.99,,,-99.99,,2013-02-07 11:23:00,
2013-02-07 06:32:00,26.0,12.0,30.42,NW,310,6.0,8.0,58,-99.99,,,-99.99,,2013-02-07 11:32:00,
2013-02-07 06:44:00,26.0,12.0,30.42,NW,310,6.0,8.0,58,-99.99,,,-99.99,,2013-02-07 11:44:00,
2013-02-07 06:53:00,26.0,12.0,30.42,NW,310,6.0,8.0,58,-99.99,,,-99.99,,2013-02-07 11:53:00,
2013-02-07 07:00:00,26.0,12.0,30.42,NW,324,8.0,10.0,55,-99.99,,,-99.99,,2013-02-07 12:00:00,
2013-02-07 07:22:00,26.0,12.0,30.42,NW,324,8.0,10.0,55,-99.99,,,-99.99,,2013-02-07 12:22:00,
2013-02-07 07:33:00,26.0,12.0,30.42,NW,324,8.0,10.0,55,-99.99,,,-99.99,,2013-02-07 12:33:00,
2013-02-07 07:42:00,26.0,12.0,30.42,NW,324,8.0,10.0,55,-99.99,,,-99.99,,2013-02-07 12:42:00,
2013-02-07 07:53:00,26.0,12.0,30.42,NW,324,8.0,10.0,55,-99.99,,,-99.99,,2013-02-07 12:53:00,
2013-02-07 08:00:00,28.0,12.0,30.45,NNW,335,9.0,11.0,53,-99.99,,,-99.99,,2013-02-07 13:00:00,
2013-02-07 08:22:00,28.0,12.0,30.45,NNW,335,9.0,11.0,53,-99.99,,,-99.99,,2013-02-07 13:22:00,
2013-02-07 08:33:00,28.0,12.0,30.45,NNW,335,9.0,11.0,53,-99.99,,,-99.99,,2013-02-07 13:33:00,
2013-02-07 08:42:00,28.0,12.0,30.45,NNW,335,9.0,11.0,53,-99.99,,,-99.99,,2013-02-07 13:42:00,
2013-02-07 08:52:00,28.0,12.0,30.45,NNW,335,9.0,11.0,53,-99.99,,,-99.99,,2013-02-07 13:52:00,
2013-02-07 09:00:00,30.0,14.0,30.47,NW,321,6.0,11.0,51,-99.99,,,-99.99,,2013-02-07 14:00:00,
2013-02-07 09:22:00,30.0,14.0,30.47,NW,321,6.0,11.0,51,-99.99,,,-99.99,,2013-02-07 14:22:00,
2013-02-07 09:32:00,30.0,14.0,30.47,NW,321,6.0,11.0,51,-99.99,,,-99.99,,2013-02-07 14:32:00,
2013-02-07 09:42:00,30.0,14.0,30.47,NW,321,6.0,11.0,51,-99.99,,,-99.99,,2013-02-07 14:42:00,
2013-02-07 09:52:00,30.0,14.0,30.47,NW,321,6.0,11.0,51,-99.99,,,-99.99,,2013-02-07 14:52:00,
2013-02-07 10:00:00,33.0,19.0,30.47,ENE,75,10.0,13.0,57,-99.99,,,-99.99,,2013-02-07 15:00:00,
2013-02-07 10:22:00,33.0,19.0,30.47,ENE,75,10.0,13.0,57,-99.99,,,-99.99,,2013-02-07 15:22:00,
2013-02-07 10:32:00,33.0,19.0,30.47,ENE,75,10.0,13.0,57,-99.99,,,-99.99,,2013-02-07 15:32:00,
2013-02-07 10:42:00,33.0,19.0,30.47,ENE,75,10.0,13.0,57,-99.99,,,-99.99,,2013-02-07 15:42:00,
2013-02-07 10:52:00,33.0,19.0,30.47,ENE,75,10.0,13.0,57,-99.99,,,-99.99,,2013-02-07 15:52:00,
2013-02-07 11:00:00,33.0,20.0,30.47,East,84,7.0,13.0,59,-99.99,,,-99.99,,2013-02-07 16:00:00,
2013-02-07 11:22:00,33.0,20.0,30.47,East,84,7.0,13.0,59,-99.99,,,-99.99,,2013-02-07 16:22:00,
2013-02-07 11:32:00,33.0,20.0,30.47,East,84,7.0,13.0,59,-99.99,,,-99.99,,2013-02-07 16:32:00,
2013-02-07 11:42:00,33.0,20.0,30.47,East,84,7.0,13.0,59,-99.99,,,-99.99,,2013-02-07 16:42:00,
2013-02-07 11:52:00,33.0,20.0,30.47,East,84,7.0,13.0,59,-99.99,,,-99.99,,2013-02-07 16:52:00,
2013-02-07 12:00:00,33.0,20.0,30.47,ENE,57,10.0,14.0,58,-99.99,,,-99.99,,2013-02-07 17:00:00,
2013-02-07 12:32:00,33.0,20.0,30.47,ENE,57,10.0,14.0,58,-99.99,,,-99.99,,2013-02-07 17:32:00,
2013-02-07 12:43:00,33.0,20.0,30.47,ENE,57,10.0,14.0,58,-99.99,,,-99.99,,2013-02-07 17:43:00,
2013-02-07 12:52:00,33.0,20.0,30.47,ENE,57,10.0,14.0,58,-99.99,,,-99.99,,2013-02-07 17:52:00,
2013-02-07 13:00:00,32.0,19.0,30.45,ENE,75,7.0,14.0,60,-99.99,,,-99.99,,2013-02-07 18:00:00,
2013-02-07 13:32:00,32.0,19.0,30.45,ENE,75,7.0,14.0,60,-99.99,,,-99.99,,2013-02-07 18:32:00,
2013-02-07 13:42:00,32.0,19.0,30.45,ENE,75,7.0,14.0,60,-99.99,,,-99.99,,2013-02-07 18:42:00,
2013-02-07 13:52:00,32.0,19.0,30.45,ENE,75,7.0,14.0,60,-99.99,,,-99.99,,2013-02-07 18:52:00,
2013-02-07 14:00:00,32.0,19.0,30.42,ENE,68,11.0,12.0,59,-99.99,,,-99.99,,2013-02-07 19:00:00,
2013-02-07 14:22:00,32.0,19.0,30.42,ENE,68,11.0,12.0,59,-99.99,,,-99.99,,2013-02-07 19:22:00,
2013-02-07 14:32:00,32.0,19.0,30.42,ENE,68,11.0,12.0,59,-99.99,,,-99.99,,2013-02-07 19:32:00,
2013-02-07 14:42:00,32.0,19.0,30.42,ENE,68,11.0,12.0,59,-99.99,,,-99.99,,2013-02-07 19:42:00,
2013-02-07 14:52:00,32.0,19.0,30.42,ENE,68,11.0,12.0,59,-99.99,,,-99.99,,2013-02-07 19:52:00,
2013-02-07 16:00:00,32.0,19.0,30.39,NE,38,12.0,18.0,58,-99.99,,,-99.99,,2013-02-07 21:00:00,
2013-02-07 16:22:00,32.0,19.0,30.39,NE,38,12.0,18.0,58,-99.99,,,-99.99,,2013-02-07 21:22:00,
2013-02-07 16:32:00,32.0,19.0,30.39,NE,38,12.0,18.0,58,-99.99,,,-99.99,,2013-02-07 21:32:00,
2013-02-07 16:42:00,32.0,19.0,30.39,NE,38,12.0,18.0,58,-99.99,,,-99.99,,2013-02-07 21:42:00,
2013-02-07 16:52:00,32.0,19.0,30.39,NE,38,12.0,18.0,58,-99.99,,,-99.99,,2013-02-07 21:52:00,
2013-02-07 17:00:00,34.0,22.0,30.39,ENE,75,14.0,20.0,62,-99.99,,,-99.99,,2013-02-07 22:00:00,
2013-02-07 17:22:00,34.0,22.0,30.39,ENE,75,14.0,20.0,62,-99.99,,,-99.99,,2013-02-07 22:22:00,
2013-02-07 17:32:00,34.0,22.0,30.39,ENE,75,14.0,20.0,62,-99.99,,,-99.99,,2013-02-07 22:32:00,
2013-02-07 17:42:00,34.0,22.0,30.39,ENE,75,14.0,20.0,62,-99.99,,,-99.99,,2013-02-07 22:42:00,
2013-02-07 17:52:00,34.0,22.0,30.39,ENE,75,14.0,20.0,62,-99.99,,,-99.99,,2013-02-07 22:52:00,
2013-02-07 18:00:00,35.0,22.0,30.36,East,99,14.0,18.0,57,-99.99,,,-99.99,,2013-02-07 23:00:00,
2013-02-07 18:22:00,35.0,22.0,30.36,East,99,14.0,18.0,57,-99.99,,,-99.99,,2013-02-07 23:22:00,
2013-02-07 18:32:00,35.0,22.0,30.36,East,99,14.0,18.0,57,-99.99,,,-99.99,,2013-02-07 23:32:00,
2013-02-07 18:42:00,35.0,22.0,30.36,East,99,14.0,18.0,57,-99.99,,,-99.99,,2013-02-07 23:42:00,
2013-02-07 18:52:00,35.0,22.0,30.36,East,99,14.0,18.0,57,-99.99,,,-99.99,,2013-02-07 23:52:00,
2013-02-07 19:00:00,36.0,24.0,30.39,East,93,10.0,18.0,62,-99.99,,,-99.99,,2013-02-08 00:00:00,
2013-02-07 19:22:00,36.0,24.0,30.39,East,93,10.0,18.0,62,-99.99,,,-99.99,,2013-02-08 00:22:00,
2013-02-07 19:32:00,36.0,24.0,30.39,East,93,10.0,18.0,62,-99.99,,,-99.99,,2013-02-08 00:32:00,
2013-02-07 19:42:00,36.0,24.0,30.39,East,93,10.0,18.0,62,-99.99,,,-99.99,,2013-02-08 00:42:00,
2013-02-07 19:52:00,36.0,24.0,30.39,East,93,10.0,18.0,62,-99.99,,,-99.99,,2013-02-08 00:52:00,
2013-02-07 21:00:00,39.0,30.0,30.36,ENE,73,9.0,17.0,71,-99.99,,,-99.99,,2013-02-08 02:00:00,
2013-02-07 21:22:00,39.0,30.0,30.36,ENE,73,9.0,17.0,71,-99.99,,,-99.99,,2013-02-08 02:22:00,
2013-02-07 21:32:00,39.0,30.0,30.36,ENE,73,9.0,17.0,71,-99.99,,,-99.99,,2013-02-08 02:32:00,
2013-02-07 21:42:00,39.0,30.0,30.36,ENE,73,9.0,17.0,71,-99.99,,,-99.99,,2013-02-08 02:42:00,
2013-02-07 21:52:00,39.0,30.0,30.36,ENE,73,9.0,17.0,71,-99.99,,,-99.99,,2013-02-08 02:52:00,
2013-02-07 22:00:00,40.0,32.0,30.33,ESE,117,11.0,18.0,76,-99.99,,,-99.99,,2013-02-08 03:00:00,
2013-02-07 22:23:00,40.0,32.0,30.33,ESE,117,11.0,18.0,76,-99.99,,,-99.99,,2013-02-08 03:23:00,
2013-02-07 22:32:00,40.0,32.0,30.33,ESE,117,11.0,18.0,76,-99.99,,,-99.99,,2013-02-08 03:32:00,
2013-02-07 22:42:00,40.0,32.0,30.33,ESE,117,11.0,18.0,76,-99.99,,,-99.99,,2013-02-08 03:42:00,
2013-02-07 22:52:00,40.0,32.0,30.33,ESE,117,11.0,18.0,76,-99.99,,,-99.99,,2013-02-08 03:52:00,
2013-02-07 23:00:00,40.0,35.0,30.30,East,86,12.0,16.0,81,-99.99,,,-99.99,,2013-02-08 04:00:00,
2013-02-07 23:21:00,40.0,35.0,30.30,East,86,12.0,16.0,81,-99.99,,,-99.99,,2013-02-08 04:21:00,
2013-02-07 23:32:00,40.0,35.0,30.30,East,86,12.0,16.0,81,-99.99,,,-99.99,,2013-02-08 04:32:00,
2013-02-07 23:42:00,40.0,35.0,30.30,East,86,12.0,16.0,81,-99.99,,,-99.99,,2013-02-08 04:42:00,
2013-02-07 23:52:00,40.0,35.0,30.30,East,86,12.0,16.0,81,-99.99,,,-99.99,,2013-02-08 04:52:00,